Location: Buch
(50.1863°N, 11.0141°E)
Time: 17:03:14
(UTC+00:00)

Cosmos 1697 Rocket - Pass Details

Date: 18 January 2020
Orbit: 833 x 843 km, 71.0° (Epoch: 25 February)

Event Time Altitude Azimuth Distance (km) Brightness Sun altitude
Rises 05:27:48 0° 222° (SW) 3,370 5.6 -15.5°
Reaches altitude 10° 05:30:17 10° 226° (SW) 2,439 4.8 -15.1°
Maximum altitude 05:35:47 56° 305° (NW) 987 2.7 -14.2°
Drops below altitude 10° 05:41:19 10° 23° (NNE) 2,454 5.2 -13.4°
Sets 05:43:49 0° 28° (NNE) 3,392 6.0 -13.0°
